Regional Weather Roundup
Issued by NWS

Home | Current Version | Previous Version | Text Only | Print | Product List | Glossary Off
Versions: 1 2 3 4 5 6 7 8 9 10 11 12 13 14 15 16 17 18 19 20 21 22 23 24 25 26 27 28 29 30 31 32 33 34 35 36 37 38 39 40 41 42 43 44 45 46 47 48 49 50

000
ASUS45 KPSR 061610
RWRAZ

ARIZONA REGIONAL HOURLY WEATHER ROUNDUP
NATIONAL WEATHER SERVICE PHOENIX AZ
900 AM MST FRI MAR 06 2015

NOTE: FAIR INDICATES FEW OR NO CLOUDS BELOW 12,000 FEET WITH NO
SIGNIFICANT WEATHER AND/OR OBSTRUCTIONS TO VISIBILITY.

AZZ001>003-036-061700-
NORTHWEST ARIZONA

CITY           SKY/WX    TMP DP  RH WIND       PRES   REMARKS
BULLHEAD CITY  SUNNY     59  28  31 N25G33    30.25R
KINGMAN        SUNNY     49  26  41 NE8       30.31R
$$

AZZ004>008-015-016-018-061700-
NORTH CENTRAL ARIZONA

CITY           SKY/WX    TMP DP  RH WIND       PRES   REMARKS
GRAND CANYON     N/A    N/A N/A N/A MISG      30.38R
PRESCOTT       SUNNY     43  19  38 CALM      30.33R
FLAGSTAFF      SUNNY     37  14  38 E12       30.37R WCI  29
PAYSON         SUNNY     50  16  25 VRB5      30.32S
PAGE           SUNNY     40  24  53 VRB3      30.44R
$$

AZZ009>014-017-061700-
NORTHEAST ARIZONA

CITY           SKY/WX    TMP DP  RH WIND       PRES   REMARKS
WINSLOW        SUNNY     36  21  54 CALM      30.42R
SAINT JOHNS    SUNNY     33  13  43 NW3       30.38R
WINDOW ROCK    SUNNY     32  19  58 VRB3      30.42R
SHOW LOW       SUNNY     30  18  59 CALM      30.39R
$$

AZZ023-061700-
GREATER PHOENIX AREA

CITY           SKY/WX    TMP DP  RH WIND       PRES   REMARKS
PHOENIX        SUNNY     62  21  20 NE12      30.16R
BUCKEYE        SUNNY     57  32  38 E5        30.17S
GLENDALE       SUNNY     57  30  35 CALM      30.19R
LUKE AFB       SUNNY     58  29  32 CALM      30.16S
DEER VALLEY    SUNNY     64  15  15 CALM      30.17R
SCOTTSDALE     SUNNY     60  24  25 CALM      30.19R
MESA-FALCON    SUNNY     61  16  17 N14       30.17R
MESA-GATEWAY   SUNNY     61  27  27 NE8       30.18S
CHANDLER       SUNNY     61  30  31 N7        30.18R
$$

AZZ027-028-061700-
SOUTHWEST MARICOPA COUNTY AND PINAL COUNTY

CITY           SKY/WX    TMP DP  RH WIND       PRES   REMARKS
CASA GRANDE    SUNNY     61  19  20 E25G37    30.15F
GILA BEND      FAIR      63  28  26 NE5       30.13R
$$

AZZ503-504-507>509-061700-
SOUTHEAST ARIZONA

CITY           SKY/WX    TMP DP  RH WIND       PRES   REMARKS
TUCSON         SUNNY     57  20  23 SE5       30.18S
DAVIS-MONTHAN  SUNNY     57  22  25 E12       30.16R
RYAN FIELD       N/A     57  23  26 E17G29    30.15S
NOGALES        SUNNY     57  27  31 MISG      30.15S
SIERRA VISTA   SUNNY     50  27  40 E16       30.23R
DOUGLAS        SUNNY     52  25  35 E17       30.25R
SAFFORD        SUNNY     47  22  37 SE12      30.34R
$$

AZZ020-021-025-026-031-061700-
SOUTHWEST ARIZONA

CITY           SKY/WX    TMP DP  RH WIND       PRES   REMARKS
YUMA           SUNNY     65  26  23 N18G24    30.12R
$$

CAZ031-033-041-043-047-048-061-061700-
SOUTHERN CALIFORNIA

CITY           SKY/WX    TMP DP  RH WIND       PRES   REMARKS
DOWNTOWN L.A.  SUNNY     60  26  27 N3        30.14S
L.A. AIRPORT   SUNNY     61  25  25 NE3       30.15S
SAN DIEGO      SUNNY     58  30  34 CALM      30.14R
BURBANK        SUNNY     59  26  28 N3        30.15R
ONTARIO        SUNNY     58  27  30 NW7       30.16R
RIVERSIDE      SUNNY     59  24  26 VRB3      30.18R
PALM SPRINGS   SUNNY     67  24  19 W6        30.21R
EL CENTRO NAS  SUNNY     60  36  40 W5        30.14R
IMPERIAL       SUNNY     58  40  51 W3        30.14R
BLYTHE         SUNNY     60  32  34 N10       30.19R
NEEDLES        SUNNY     60  26  27 N14       30.25R
$$

NVZ020-UTZ003-061700-
SOUTHERN NEVADA-UTAH

CITY           SKY/WX    TMP DP  RH WIND       PRES   REMARKS
LAS VEGAS      SUNNY     54  26  34 SW5       30.31R
SALT LAKE CITY MOSUNNY   37  24  59 SE12      30.46R WCI  29
$$

NMZ009-TXZ055-061700-
NEW MEXICO-WEST TEXAS

CITY           SKY/WX    TMP DP  RH WIND       PRES   REMARKS
ALBUQUERQUE    SUNNY     38  16  40 N6        30.42R WCI  33
EL PASO        MOSUNNY   42  22  44 CALM      30.41R
$$


........................KEY........................
SKY/WX - SKY CONDITION/WEATHER
TMP    - TEMPERATURE IN FAHRENHEIT
DP     - DEW POINT IN FAHRENHEIT
RH     - RELATIVE HUMIDITY IN PERCENT
WIND   - DIRECTION AND SPEED IN MILES PER HOUR (MPH)
VRB    - VARIABLE WIND DIRECTION
PRES   - MEAN SEA LEVEL PRESSURE IN INCHES OF MERCURY
         F - FALLING PRESSURE   R - RISING PRESSURE
         S - STEADY PRESSURE
VSB    - VISIBILITY IN MILES
HX     - HEAT INDEX IN FAHRENHEIT
WCI    - WIND CHILL INDEX IN FAHRENHEIT
TC     - TEMPERATURE IN CELSIUS WHICH IS ALSO KNOWN AS
         TEMPERATURE IN CENTIGRADE
AFB    - AIR FORCE BASE
         LUKE AFB IS LUKE AIR FORCE BASE
         DAVIS-MONTHAN IS DAVIS-MONTHAN AIR FORCE BASE
NAS    - NAVAL AIR STATION
         EL CENTRO NAS IS EL CENTRO NAVAL AIR STATION
N/A    - NOT AVAILABLE



USA.gov is the U.S. government's official web portal to all federal, state and local government web resources and services.